INSAT 2B 
1 22724U 93048B   03096.07033243 -.00000350  00000-0  10000-3 0  3505
2 22724   2.2334  89.8264 0003412 301.4566 299.4708  1.00268799 35868
METEOR 2-21 
1 22782U 93055A   03098.85642973  .00000187  00000-0  15642-3 0  5642
2 22782  82.5520 175.8175 0022074 203.8381 156.1794 13.83535092484906
METEOSAT 6 
1 22912U 93073B   03098.12548034  .00000070  00000-0  00000+0 0  7539
2 22912   2.7947  82.2728 0001973 316.4299 212.0732  1.00280227 32789
GOES 8 
1 23051U 94022A   03099.24590896 -.00000245  00000-0  00000+0 0  6811
2 23051   0.4181 100.8305 0002792 309.5987 159.9111  1.00261007 40306
ELEKTRO 
1 23327U 94069A   03094.49033995  .00000003  00000-0  10000-3 0  7976
2 23327   5.3803  74.3794 0002562 177.7995 182.3298  1.00268282 30894
NOAA 14 
1 23455U 94089A   03099.52633045  .00000238  00000-0  15179-3 0  5870
2 23455  99.1856 119.4078 0010211  88.6002 271.6347 14.13317919426537
GMS 5 
1 23522U 95011B   03097.10962711 -.00000280  00000-0  00000+0 0  1785
2 23522   1.8666  83.4969 0000838   5.1843 285.3962  1.00260334 29366
GOES 9 
1 23581U 95025A   03099.45819045 -.00000093  00000-0  00000+0 0  6064
2 23581   0.1511 276.8102 0010917 212.5897  39.3292  1.00068742 28867
INSAT 2C 
1 23731U 95067B   03097.83498109  .00000128  00000-0  10000-3 0  8965
2 23731   0.9082 104.5017 0009578 340.0986  99.6992  1.00277321 26874
GOES 10 
1 24786U 97019A   03098.26221716  .00000093  00000-0  00000+0 0  6280
2 24786   0.2649 103.4257 0003706 305.7915 105.8062  1.00277744 21825
FENGYUN 2A 
1 24834U 97029A   03098.93425563 -.00000195  00000-0  00000+0 0  9956
2 24834   2.6922  87.8681 0000671 257.8544 273.9102  1.00271334 21335
ORBVIEW 2 SE
1 24883U 97037A   03099.24738614  .00000785  00000-0  17605-3 0   833
2 24883  98.2168 199.6907 0002554  59.5202 300.6251 14.59253472302599
METEOSAT 7 
1 24932U 97049B   03098.90374422 -.00000004  00000-0  00000+0 0  2728
2 24932   0.3271  75.5669 0000827 248.3552 197.7804  1.00268953 20517
NOAA 15 
1 25338U 98030A   03099.54743963  .00000285  00000-0  14184-3 0   710
2 25338  98.5475 120.3402 0010472 166.5420 193.6036 14.24269855254916
RESURS O1-N4
1 25394U 98043A   03098.96552877  .00000238  00000-0  12270-3 0  4922
2 25394  98.6232 175.9595 0001358   6.6800 353.4396 14.23897735246568
INSAT 2E 
1 25666U 99016A   03098.71148383 -.00000162  00000-0  00000+0 0  6621
2 25666   0.0483  71.3054 0006380 207.9512 256.4599  1.00271808 14838
FENGYUN 1C 
1 25730U 99025A   03098.98169485 -.00000019  00000-0  12806-4 0  8128
2 25730  98.6317 121.5208 0013819 219.3665 140.6505 14.11739193201605
QUIKSCAT 
1 25789U 99034A   03099.08331499  .00000117  00000-0  66600-4 0  7791
2 25789  98.6363 285.4825 0001324  52.8185 307.3117 14.26596138198040
INSAT 3B 
1 26108U 00016B   03098.67697782 -.00000163  00000-0  00000+0 0  4193
2 26108   0.0476 121.2145 0014479 185.7207 216.3765  1.00272423 11178
GOES 11 
1 26352U 00022A   03098.40360972 -.00000027  00000-0  10000-3 0  1023
2 26352   0.2625  99.1995 0002390 242.0170 246.2789  1.00271274 10729
FENGYUN 2B 
1 26382U 00032A   03098.67831834 -.00000325  00000-0  00000-0 0  8266
2 26382   0.4463 290.1171 0000993 333.4381 281.5754  1.00258914 10202
NOAA 16 
1 26536U 00055A   03099.25824060  .00000517  00000-0  30678-3 0  2836
2 26536  98.9088  47.1961 0010770 161.1014 199.0569 14.11936409131162
GOES 12 
1 26871U 01031A   03099.17295897 -.00000238  00000-0  10000-3 0  9075
2 26871   0.2044 275.1423 0001091  76.3698 188.4878  1.00351228  6338
METEOR-3M 
1 27001U 01056A   03098.95427040  .00000139  00000-0  21472-3 0  1751
2 27001  99.5849 336.7041 0014639 123.5198 236.7347 13.68201984 66222
INSAT 3C 
1 27298U 02002A   03098.68140394 -.00000074  00000-0  00000+0 0  2496
2 27298   0.0516 141.0892 0004460 261.7530 112.9464  1.00272455  4439
FENGYUN 1D 
1 27431U 02024B   03098.94151238  .00000082  00000-0  72060-4 0  2787
2 27431  98.7615 146.5782 0015190 348.4877  11.5944 14.09183820 46320
NOAA 17 
1 27453U 02032A   03099.54782184  .00000389  00000-0  19093-3 0  3672
2 27453  98.7474 170.4725 0011351 208.9291 151.1259 14.23326796 41079
MSG-1 
1 27509U 02040B   03092.06684608 -.00000094  00000-0  00000+0 0  1615
2 27509   1.5776 303.4938 0002385 115.7660 144.3478  1.00273168  2253
METSAT 1 
1 27525U 02043A   03098.68153356 -.00000075  00000-0  00000+0 0  1216
2 27525   0.0216 245.4751 0003926  37.0946 233.3161  1.00272903  2127
NOAA 9 
1 15427U 84123A   03099.28875573  .00000321  00000-0  18770-3 0  8297
2 15427  98.6574 165.5185 0015798  77.3631 282.9301 14.15042523945176
NOAA 10 
1 16969U 86073A   03099.53898105  .00000238  00000-0  11591-3 0  7288
2 16969  98.7356  93.5688 0011896 305.5501  54.4570 14.27086521861033
NOAA 11 
1 19531U 88089A   03099.52019622  .00000286  00000-0  17226-3 0  5656
2 19531  98.8944 180.7173 0012499  62.7713 297.4731 14.14563418749865
NOAA 12 
1 21263U 91032A   03099.54362182  .00000454  00000-0  21180-3 0   350
2 21263  98.6330  88.3525 0011769 235.6013 124.4054 14.25119671618338
NOAA 14 
1 23455U 94089A   03099.52633045  .00000238  00000-0  15179-3 0  5870
2 23455  99.1856 119.4078 0010211  88.6002 271.6347 14.13317919426537
NOAA 15 
1 25338U 98030A   03099.54743963  .00000285  00000-0  14184-3 0   710
2 25338  98.5475 120.3402 0010472 166.5420 193.6036 14.24269855254916
NOAA 16 
1 26536U 00055A   03099.25824060  .00000517  00000-0  30678-3 0  2836
2 26536  98.9088  47.1961 0010770 161.1014 199.0569 14.11936409131162
NOAA 17 
1 27453U 02032A   03099.54782184  .00000389  00000-0  19093-3 0  3672
2 27453  98.7474 170.4725 0011351 208.9291 151.1259 14.23326796 41079
GOES 2 
1 10061U 77048A   03098.98681609 -.00000120  00000-0  00000+0 0  1457
2 10061  14.1479  13.0507 0012524 201.3948 158.5252  0.99401321 39327
GOES 3 
1 10953U 78062A   03098.79526336 -.00000100  00000-0  00000+0 0  9803
2 10953  13.4323  16.8571 0006462 349.7977  10.1602  1.00280219 43996
GOES 6 
1 14050U 83041A   03090.91744856  .00000001  00000-0  10000-3 0  4330
2 14050  10.4525  35.2971 0004606 346.4424  13.5404  1.00314251131053
GOES 7 
1 17561U 87022A   03093.48039988  .00000040  00000-0  10000-3 0  9126
2 17561   7.6868  55.2582 0005345 272.8753 215.5563  1.00267259 42189
GOES 8 
1 23051U 94022A   03099.24590896 -.00000245  00000-0  00000+0 0  6811
2 23051   0.4181 100.8305 0002792 309.5987 159.9111  1.00261007 40306
GOES 9 
1 23581U 95025A   03099.45819045 -.00000093  00000-0  00000+0 0  6064
2 23581   0.1511 276.8102 0010917 212.5897  39.3292  1.00068742 28867
GOES 10 
1 24786U 97019A   03098.26221716  .00000093  00000-0  00000+0 0  6280
2 24786   0.2649 103.4257 0003706 305.7915 105.8062  1.00277744 21825
GOES 11 
1 26352U 00022A   03098.40360972 -.00000027  00000-0  10000-3 0  1023
2 26352   0.2625  99.1995 0002390 242.0170 246.2789  1.00271274 10729
GOES 12 
1 26871U 01031A   03099.17295897 -.00000238  00000-0  10000-3 0  9075
2 26871   0.2044 275.1423 0001091  76.3698 188.4878  1.00351228  6338
SEASAT 1 
1 10967U 78064A   03098.96047842  .00000528  00000-0  20417-3 0  2274
2 10967 108.0127 293.7672 0001970 271.5519  88.5401 14.41502909299233
LANDSAT 4 
1 13367U 82072A   03098.96986642  .00003848  00000-0  32478-3 0  5007
2 13367  98.2137 203.2702 0006995 304.0467  56.0081 14.98765200105256
LANDSAT 5 
1 14780U 84021A   03099.37663060  .00000644  00000-0  15311-3 0  8286
2 14780  98.2527 163.8744 0001793 267.7362  92.3631 14.57083624 16158
COSMOS 1602 
1 15331U 84105A   03099.05339023  .00003189  00000-0  26769-3 0  2949
2 15331  82.5234 287.7256 0014816 321.2783  38.7370 14.97972978  2993
SPOT 1 
1 16613U 86019A   03099.14512277  .00000261  00000-0  14294-3 0  1906
2 16613  98.6859 175.0342 0000402  30.9729 329.1465 14.20044064573260
COSMOS 1766 
1 16881U 86055A   03099.19073361  .00001703  00000-0  14760-3 0  3692
2 16881  82.5151 344.8435 0014983  11.1993 348.9544 14.96429679903598
MOS 1A MOMO 
1 17527U 87018A   03099.50444238 -.00000027  00000-0  10000-4 0  5684
2 17527  98.7101 105.5401 0015346 246.4579 113.5030 14.01643385823238
IRS-1A 
1 18960U 88021A   03099.09747022  .00000131  00000-0  12643-3 0  9214
2 18960  98.9952  46.5595 0013942 306.9776  53.0100 13.96246603671136
OKEAN 1 
1 19274U 88056A   03099.53694010  .00002359  00000-0  21855-3 0  9701
2 19274  82.5065  89.8242 0016452 164.3083 195.8650 14.93985753798784
SPOT 2 
1 20436U 90005A   03099.26835096  .00000321  00000-0  17135-3 0  4776
2 20436  98.6898 174.3829 0000912  83.1885 308.5330 14.20043243684816
MOS 1B MOMO 
1 20478U 90013A   03098.62698075 -.00000042  00000-0  00000-0 0  8375
2 20478  98.8041 134.1099 0004583 275.3537  84.7112 13.94703369591027
OKEAN 2 
1 20510U 90018A   03098.93168685  .00003086  00000-0  32195-3 0  3727
2 20510  82.5187  62.8438 0017954  61.1496 299.1522 14.89337556707965
OKEAN 3 
1 21397U 91039A   03098.77865563  .00002335  00000-0  26984-3 0  9491
2 21397  82.5223 347.5297 0019454 165.1939 194.9847 14.85061850638951
ERS-1 
1 21574U 91050A   03098.92615879  .00000301  00000-0  11925-3 0  7523
2 21574  98.4329 171.6581 0034312 354.0218   6.0551 14.35296223613667
IRS-1B 
1 21688U 91061A   03099.17079487 -.00000022  00000-0  15221-4 0  2427
2 21688  98.9640 169.1899 0018501 256.8119 136.9346 13.96830601485964
TOPEX 
1 22076U 92052A   03098.47401702 -.00000038  00000-0  10000-3 0  5857
2 22076  66.0422  88.4525 0007981 268.8052  91.2049 12.80930584498564
SPOT 3 
1 22823U 93061A   03099.15170829  .00000212  00000-0  12264-3 0  3762
2 22823  98.4341 131.0461 0017979  77.5983 282.7203 14.18325014493599
